CZ-2C DEB

Satellite information

Favourite Embed

Satellite Type and Status

DEBRISIN ORBIT

Key statistics

Satellite CZ-2C DEB at a glance.

Uptime

4487

Days in orbit

Revolutions

≈ 14.3

Per day

Orbit

SSO

Sun Synchronous Orbit

Inclination

97.9

Latest

Satellite identification and parameters

Extended collection of information and parameters for CZ-2C DEB.

Object identification

Identified? True

Debris? True

Object name: CZ-2C DEB

International designator: 2013-035E

Object number (NORAD): 39224

Object ID (CCSDS): 39224

Country: PEOPLES REPUBLIC OF CHINA (PRC)

Current information (Y/N): Y

RCS size: SMALL

Orbital parameters

Period: 100.362 minutes

Inclination: 97.9122 deg

SMA: 7153.848 km

Apoapsis: 884.347 km

Periapsis: 667.08 km

RAAN: 87.8096 deg

Eccentricy: 0.01518536

Argument of periapsis: 149.687 deg

Mean anomaly: 211.3209 deg

Mean motion: 14.34805952 rev/day

Mean motion (dot): 0.0000554 rev/day2

B* drag term: 0.0017259118 1/REarth

Two-line elements (TLE)

Creation date: Oct. 27, 2025, 2:46 a.m.

Reference frame: TEME

Reference center: EARTH

Epoch: Oct. 26, 2025, 10:28 p.m. UTC

TLE line 0: 0 CZ-2C DEB

TLE line 1: 1 39224U 13035E 25299.93638616 .00005540 00000-0 17259-2 0 9991

TLE line 2: 2 39224 97.9122 87.8096 0151854 149.6870 211.3209 14.34805952634023

Live tracking on map

Real-time ground track for satellite CZ-2C DEB.

In-orbit conjunctions

A list of the most updated potential collisions computed for object CZ-2C DEB.

Target Orbit TCA Probability of collision Miss distance Type
SL-24 R/B SSO 2025-10-18 21:36:31 0.000115283 963.0 (m) ROCKET BODY
FENGYUN 1C DEB SSO 2025-01-20 06:22:25 0.0005969665 61.0 (m) DEBRIS
FENGYUN 1C DEB SSO 2024-08-05 01:51:48 0.0001264576 168.0 (m) DEBRIS

Associated space launch

CZ-2C DEB was lifted into orbit during the mission ‘Long March 2C | Shijian 11-05’, on board a Long March 2 space rocket.

The launch took place on July 15, 2013, 9:27 a.m. from Launch Area 4 (SLS-2 / 603).

For more information about the launch, click the button.

Launch to space Long March 2C | Shijian 11-05
Long March 2C | Shijian 11-05

Agency: N/A

Status: Launch Successful

Launch date: July 15, 2013, 9:27 a.m. UTC

Rocket: Long March 2

Launch pad: Launch Area 4 (SLS-2 / 603)

Location: Jiuquan Satellite Launch Center, People's Republic of China

...

Latest news about this satellite

There are no fresh news available about this satellite. Check back as we update our databases every day.


Newsletter sign-up

Weekly statistics, charts and insights to help you stay on top of the space industry.